Location: Degersen
(52.2871°N, 9.5716°E)
Time: 19:52:25
(UTC+00:00)

SPOT 1/Viking Rocket - Pass Details

Date: 20 January 2026
Orbit: 772 x 789 km, 98.2° (Epoch: 16 February)

Event Time Altitude Azimuth Distance (km) Brightness Sun altitude
Rises 06:15:46 0° 17° (NNE) 3,262 6.7 -9.5°
Reaches altitude 10° 06:18:08 10° 21° (NNE) 2,331 6.0 -9.1°
Maximum altitude 06:23:13 60° 101° (E) 889 4.2 -8.4°
Drops below altitude 10° 06:28:15 10° 181° (S) 2,317 6.3 -7.7°
Sets 06:30:36 0° 185° (S) 3,242 7.0 -7.4°
